TimePST,TemperatureF,Dew PointF,Humidity,Sea Level PressureIn,VisibilityMPH,Wind Direction,Wind SpeedMPH,Gust SpeedMPH,PrecipitationIn,Events,Conditions,WindDirDegrees,DateUTC
12:53 AM,-2.9,-9.9,72,30.53,10.0,South,13.8,-,N/A,,Clear,170,2013-01-05 08:53:00
1:53 AM,-4.0,-9.9,76,30.54,10.0,South,12.7,-,N/A,,Clear,170,2013-01-05 09:53:00
2:53 AM,-2.9,-9.0,75,30.53,10.0,North,-9999.0,-,N/A,,Clear,0,2013-01-05 10:53:00
3:53 AM,-5.1,-11.0,76,30.54,10.0,North,-9999.0,-,N/A,,Clear,0,2013-01-05 11:53:00
4:53 AM,-2.9,-9.9,72,30.61,10.0,North,-9999.0,-,N/A,,Clear,0,2013-01-05 12:53:00
5:53 AM,-4.0,-9.9,76,30.63,10.0,North,-9999.0,-,N/A,,Clear,0,2013-01-05 13:53:00
6:53 AM,-2.0,-9.0,72,30.64,10.0,North,-9999.0,-,N/A,,Clear,0,2013-01-05 14:53:00
7:53 AM,-0.9,-9.0,69,30.66,10.0,North,-9999.0,-,N/A,,Clear,0,2013-01-05 15:53:00
8:53 AM,6.1,-2.9,67,30.62,10.0,North,-9999.0,-,N/A,,Clear,0,2013-01-05 16:53:00
9:53 AM,15.1,1.9,56,30.57,10.0,North,-9999.0,-,N/A,,Clear,0,2013-01-05 17:53:00
10:53 AM,21.0,6.1,53,30.54,10.0,North,-9999.0,-,N/A,,Clear,0,2013-01-05 18:53:00
11:53 AM,25.0,9.0,51,30.48,10.0,North,-9999.0,-,N/A,,Clear,0,2013-01-05 19:53:00
12:53 PM,30.9,9.0,40,30.42,10.0,North,-9999.0,-,N/A,,Clear,0,2013-01-05 20:53:00
1:53 PM,37.0,9.0,31,30.38,10.0,North,-9999.0,-,N/A,,Clear,0,2013-01-05 21:53:00
2:53 PM,30.0,12.9,49,30.40,10.0,North,-9999.0,-,N/A,,Clear,0,2013-01-05 22:53:00
3:53 PM,21.9,9.0,58,30.45,10.0,North,-9999.0,-,N/A,,Clear,0,2013-01-05 23:53:00
4:53 PM,16.0,6.1,65,30.47,10.0,North,-9999.0,-,N/A,,Clear,0,2013-01-06 00:53:00
5:53 PM,9.0,3.0,77,30.50,10.0,North,-9999.0,-,N/A,,Clear,0,2013-01-06 01:53:00
6:53 PM,7.0,3.0,84,30.48,10.0,North,-9999.0,-,N/A,,Clear,0,2013-01-06 02:53:00
7:53 PM,10.9,5.0,77,30.46,10.0,North,-9999.0,-,N/A,,Clear,0,2013-01-06 03:53:00
8:53 PM,12.0,6.1,77,30.41,10.0,North,-9999.0,-,N/A,,Clear,0,2013-01-06 04:53:00
9:53 PM,12.9,6.1,74,30.36,10.0,North,-9999.0,-,N/A,,Clear,0,2013-01-06 05:53:00
10:53 PM,12.0,5.0,73,30.31,10.0,North,-9999.0,-,N/A,,Clear,0,2013-01-06 06:53:00
11:53 PM,17.1,7.0,65,30.24,10.0,North,-9999.0,-,N/A,,Clear,0,2013-01-06 07:53:00